Location: Gleizolles
(44.4833°N, 6.7667°E)
Time: 00:32:52
(UTC+00:00)

Vanguard 2 Rocket - Pass Details

Date: 20 June 2024
Orbit: 555 x 3302 km, 32.9° (Epoch: 24 July)

Event Time Altitude Azimuth Distance (km) Brightness Sun altitude
Rises 00:14:41 0° 201° (SSW) 6,712 - -21.5°
Reaches altitude 10° 00:20:07 10° 190° (S) 5,972 - -21.3°
Exits shadow 00:27:01 21° 170° (S) 5,272 10.2 -21.0°
Maximum altitude 00:34:29 27° 142° (SE) 4,962 10.3 -20.7°
Drops below altitude 10° 00:48:28 10° 95° (E) 5,864 11.2 -20.0°
Sets 00:53:37 0° 84° (E) 6,582 11.6 -19.7°
